Terug naar catalogus

STARLINK-30923

ActiefCommunicatieVLEO
NORAD 58381·PAYLOAD·🇺🇸 United States

Gelanceerd Nov 20, 2023 vanaf Vandenberg Space Force Base

Loading…

Volgende Passages (komende 24 uur)

TLE

VersSource: CelesTrak SupGP

Epoch: Sep 14, 2026, 21:45 UTC

1 58381C 23178H   26257.90673611  .00053794  00000+0  13197-2 0  2578
2 58381  53.1581 197.3044 0003207 133.4662  89.1930 15.40100874    16

Volg STARLINK-30923 in realtime met AllMySat

Download on the App Store